TimePST,TemperatureF,Dew PointF,Humidity,Sea Level PressureIn,VisibilityMPH,Wind Direction,Wind SpeedMPH,Gust SpeedMPH,PrecipitationIn,Events,Conditions,WindDirDegrees,DateUTC
12:15 AM,6.8,5.0,92,30.37,9.0,Calm,Calm,-,N/A,,Clear,0,2013-01-21 08:15:00
12:35 AM,10.4,6.8,85,30.36,10.0,Calm,Calm,-,N/A,,Clear,0,2013-01-21 08:35:00
12:55 AM,6.8,3.2,85,30.36,10.0,Calm,Calm,-,N/A,,Clear,0,2013-01-21 08:55:00
1:15 AM,6.8,5.0,92,30.37,10.0,SE,4.6,-,N/A,,Clear,130,2013-01-21 09:15:00
1:35 AM,5.0,1.4,85,30.37,6.0,Calm,Calm,-,N/A,,Clear,0,2013-01-21 09:35:00
1:55 AM,8.6,6.8,92,30.38,7.0,Calm,Calm,-,N/A,,Clear,0,2013-01-21 09:55:00
2:15 AM,5.0,1.4,85,30.39,2.5,SSW,3.5,-,N/A,,Clear,210,2013-01-21 10:15:00
2:35 AM,6.8,5.0,92,30.38,9.0,Calm,Calm,-,N/A,,Clear,0,2013-01-21 10:35:00
2:55 AM,5.0,-0.4,78,30.38,5.0,Calm,Calm,-,N/A,,Clear,0,2013-01-21 10:55:00
3:15 AM,5.0,-0.4,78,30.38,3.0,Calm,Calm,-,N/A,,Clear,0,2013-01-21 11:15:00
3:35 AM,6.8,3.2,85,30.37,3.0,SW,3.5,-,N/A,,Clear,230,2013-01-21 11:35:00
3:55 AM,6.8,3.2,85,30.37,10.0,Calm,Calm,-,N/A,,Clear,0,2013-01-21 11:55:00
4:15 AM,3.2,-0.4,85,30.37,7.0,Calm,Calm,-,N/A,,Clear,0,2013-01-21 12:15:00
4:35 AM,5.0,-0.4,78,30.37,3.0,ESE,3.5,-,N/A,,Clear,110,2013-01-21 12:35:00
4:55 AM,1.4,-0.4,92,30.36,1.0,Calm,Calm,-,N/A,,Clear,0,2013-01-21 12:55:00
5:15 AM,5.0,-0.4,78,30.36,10.0,NNE,3.5,-,N/A,,Clear,30,2013-01-21 13:15:00
5:35 AM,1.4,-2.2,85,30.36,8.0,Calm,Calm,-,N/A,,Clear,0,2013-01-21 13:35:00
6:55 AM,-0.4,-4.0,85,30.37,10.0,Calm,Calm,-,N/A,,Partly Cloudy,0,2013-01-21 14:55:00
7:55 AM,1.4,-2.2,85,30.38,10.0,Calm,Calm,-,N/A,,Clear,0,2013-01-21 15:55:00
8:55 AM,6.8,1.4,79,30.40,10.0,Calm,Calm,-,N/A,,Clear,0,2013-01-21 16:55:00
9:45 AM,10.4,8.6,92,30.40,10.0,NE,3.5,-,N/A,,Clear,40,2013-01-21 17:45:00
10:45 AM,15.8,14.0,93,30.39,10.0,Calm,Calm,-,N/A,,Clear,0,2013-01-21 18:45:00
11:55 AM,24.8,14.0,64,30.34,10.0,Calm,Calm,-,N/A,,Clear,0,2013-01-21 19:55:00
1:55 PM,32.0,8.6,38,30.31,10.0,Calm,Calm,-,N/A,,Clear,0,2013-01-21 21:55:00
2:55 PM,35.6,15.8,44,30.28,10.0,Calm,Calm,-,N/A,,Clear,0,2013-01-21 22:55:00
3:50 PM,37.4,15.8,41,30.27,10.0,West,3.5,-,N/A,,Clear,260,2013-01-21 23:50:00
4:55 PM,32.0,15.8,51,30.27,9.0,SSW,3.5,-,N/A,,Clear,210,2013-01-22 00:55:00
5:15 PM,30.2,15.8,55,30.27,10.0,Calm,Calm,-,N/A,,Clear,0,2013-01-22 01:15:00
5:35 PM,28.4,14.0,55,30.28,10.0,Calm,Calm,-,N/A,,Clear,0,2013-01-22 01:35:00
5:55 PM,24.8,15.8,69,30.28,10.0,SE,5.8,-,N/A,,Clear,130,2013-01-22 01:55:00
6:15 PM,24.8,15.8,69,30.29,10.0,Calm,Calm,-,N/A,,Clear,0,2013-01-22 02:15:00
6:35 PM,24.8,15.8,69,30.29,10.0,Calm,Calm,-,N/A,,Clear,0,2013-01-22 02:35:00
6:55 PM,24.8,14.0,64,30.30,10.0,Calm,Calm,-,N/A,,Clear,0,2013-01-22 02:55:00
7:15 PM,23.0,14.0,68,30.31,10.0,Calm,Calm,-,N/A,,Clear,0,2013-01-22 03:15:00
7:35 PM,23.0,14.0,68,30.31,10.0,South,3.5,-,N/A,,Clear,190,2013-01-22 03:35:00
7:55 PM,21.2,12.2,68,30.30,10.0,Calm,Calm,-,N/A,,Clear,0,2013-01-22 03:55:00
8:15 PM,19.4,12.2,74,30.30,10.0,Calm,Calm,-,N/A,,Clear,0,2013-01-22 04:15:00
8:35 PM,19.4,14.0,80,30.31,10.0,ESE,3.5,-,N/A,,Clear,110,2013-01-22 04:35:00
8:55 PM,19.4,10.4,68,30.31,10.0,Calm,Calm,-,N/A,,Clear,0,2013-01-22 04:55:00
9:15 PM,23.0,14.0,68,30.31,10.0,SW,3.5,-,N/A,,Clear,220,2013-01-22 05:15:00
9:35 PM,19.4,12.2,74,30.32,10.0,Calm,Calm,-,N/A,,Clear,0,2013-01-22 05:35:00
9:55 PM,15.8,10.4,79,30.32,10.0,Calm,Calm,-,N/A,,Clear,0,2013-01-22 05:55:00
10:15 PM,17.6,12.2,79,30.32,10.0,Calm,Calm,-,N/A,,Clear,0,2013-01-22 06:15:00
10:35 PM,17.6,12.2,79,30.33,10.0,Calm,Calm,-,N/A,,Clear,0,2013-01-22 06:35:00
10:55 PM,15.8,12.2,86,30.33,10.0,Calm,Calm,-,N/A,,Clear,0,2013-01-22 06:55:00
11:15 PM,15.8,12.2,86,30.33,10.0,Calm,Calm,-,N/A,,Clear,0,2013-01-22 07:15:00
11:35 PM,15.8,12.2,86,30.33,10.0,Calm,Calm,-,N/A,,Clear,0,2013-01-22 07:35:00
11:55 PM,17.6,14.0,86,30.33,10.0,Calm,Calm,-,N/A,,Clear,0,2013-01-22 07:55:00